FW6727 Weather Reports


Display with metric or nautical units.
time (UTC)temp
F
wind
direction
speed
MPH
gust
MPH
rain 1hr
in
rain 24hr
in
rain mn
in
humidity
%
barometer
mb
20260505193037 78 184 3.0 11.0 0.00 0.00 0.00 42 1015.1
20260505191541 78 258 3.0 15.0 0.00 0.00 0.00 40 1015.3
20260505190039 78 271 5.0 17.0 0.00 0.00 0.00 40 1015.5
20260505184536 78 252 4.0 12.0 0.00 0.00 0.00 43 1015.7
20260505183037 77 232 4.0 11.0 0.00 0.00 0.00 43 1015.8
20260505181535 77 254 2.0 13.0 0.00 0.00 0.00 44 1015.9
20260505174555 77 216 5.0 15.0 0.00 0.00 0.00 44 1016.5
20260505173043 78 213 3.0 12.0 0.00 0.00 0.00 44 1016.7
20260505171535 77 249 4.0 13.0 0.00 0.00 0.00 45 1017.0
20260505170035 75 257 2.0 13.0 0.00 0.00 0.00 47 1017.0
20260505164545 75 122 4.0 10.0 0.00 0.00 0.00 45 1016.7
20260505163037 75 269 3.0 11.0 0.00 0.00 0.00 52 1016.7
20260505161538 74 267 3.0 10.0 0.00 0.00 0.00 52 1017.1
20260505153035 71 236 2.0 8.0 0.00 0.00 0.00 56 1017.3
20260505151540 70 165 1.0 9.0 0.00 0.00 0.00 55 1017.5
20260505124540 53 0 0.0 0.0 0.00 0.00 0.00 94 1016.9
20260505123037 51 0 0.0 0.0 0.00 0.00 0.00 95 1017.1
20260505121536 50 0 0.0 0.0 0.00 0.00 0.00 95 1017.0
20260505120038 48 0 0.0 0.0 0.00 0.00 0.00 95 1016.6
20260505114535 46 0 0.0 0.0 0.00 0.00 0.00 94 1016.4
20260505113041 45 0 0.0 1.0 0.00 0.00 0.00 94 1016.4
20260505111538 45 164 0.0 2.0 0.00 0.00 0.00 94 1016.3
20260505101541 46 142 0.0 7.0 0.00 0.00 0.00 94 1016.1
20260505100038 46 148 1.0 2.0 0.00 0.00 0.00 93 1016.0
20260505094537 46 0 0.0 2.0 0.00 0.00 0.00 93 1015.9
20260505093039 46 0 0.0 5.0 0.00 0.00 0.00 93 1016.1
20260505091543 46 0 0.0 2.0 0.00 0.00 0.00 93 1015.8
20260505090034 46 0 0.0 4.0 0.00 0.00 0.00 93 1015.9
20260505084538 47 306 1.0 4.0 0.00 0.00 0.00 93 1015.8
20260505083036 47 0 0.0 6.0 0.00 0.00 0.00 93 1015.8
20260505081539 47 176 3.0 6.0 0.00 0.00 0.00 92 1015.8
20260505080035 47 0 0.0 2.0 0.00 0.00 0.00 92 1015.4
20260505074537 47 0 0.0 0.0 0.00 0.00 0.00 92 1015.4
20260505073046 47 194 0.0 1.0 0.00 0.00 0.00 92 1015.4
20260505071550 48 194 1.0 2.0 0.00 0.00 0.00 92 1015.4
20260505070041 48 0 0.0 0.0 0.00 0.00 0.00 91 1015.4
20260505064535 48 0 0.0 0.0 0.00 0.00 0.00 91 1015.7
20260505063047 49 0 0.0 0.0 0.00 0.00 0.00 91 1015.7
20260505061603 49 0 0.0 0.0 0.00 0.00 0.00 91 1015.8
20260505060039 50 0 0.0 0.0 0.00 0.00 0.00 90 1015.8
20260505054538 50 0 0.0 0.0 0.00 0.00 0.00 90 1015.7
20260505053041 51 0 0.0 0.0 0.00 0.00 0.00 89 1015.8
20260505051556 51 0 0.0 0.0 0.00 0.00 0.00 89 1015.7
20260505041537 53 0 0.0 2.0 0.00 0.00 0.00 87 1015.7
20260505040039 54 192 0.0 2.0 0.00 0.00 0.00 85 1015.7
20260505034536 55 0 0.0 2.0 0.00 0.00 0.00 84 1015.8
20260505033037 55 0 0.0 1.0 0.00 0.00 0.00 81 1015.9
20260505031539 56 191 1.0 3.0 0.00 0.00 0.00 80 1015.8
20260505030037 57 0 0.0 0.0 0.00 0.00 0.00 79 1015.8
20260505024541 58 0 0.0 0.0 0.00 0.00 0.00 78 1015.9
20260505023035 58 0 0.0 0.0 0.00 0.00 0.00 76 1015.9
20260505021537 59 0 0.0 0.0 0.00 0.00 0.00 75 1015.6
20260505020037 60 0 0.0 0.0 0.00 0.00 0.00 73 1015.5
20260505014537 61 0 0.0 0.0 0.00 0.00 0.00 72 1015.6
20260505013036 62 0 0.0 0.0 0.00 0.00 0.00 70 1015.3
20260505011534 63 0 0.0 0.0 0.00 0.00 0.00 68 1015.2
20260505010038 64 0 0.0 0.0 0.00 0.00 0.00 67 1015.1
20260505004536 66 0 0.0 0.0 0.00 0.00 0.00 67 1015.0
20260505003035 68 0 0.0 0.0 0.00 0.00 0.00 64 1015.0
20260505001535 68 0 0.0 2.0 0.00 0.00 0.00 61 1014.9
20260505000043 69 0 0.0 1.0 0.00 0.00 0.00 59 1015.0
20260504234539 70 192 0.0 1.0 0.00 0.00 0.00 62 1014.7
20260504233042 72 0 0.0 2.0 0.00 0.00 0.00 50 1014.6
20260504231542 73 0 0.0 3.0 0.00 0.00 0.00 47 1014.4
20260504230046 74 167 0.0 4.0 0.00 0.00 0.00 45 1014.4
20260504224534 75 136 1.0 7.0 0.00 0.00 0.00 44 1014.4
20260504223038 76 156 0.0 5.0 0.00 0.00 0.00 41 1014.5
20260504221535 75 153 2.0 9.0 0.00 0.00 0.00 42 1014.6
20260504220038 77 225 2.0 7.0 0.00 0.00 0.00 40 1014.6
20260504214535 77 125 1.0 3.0 0.00 0.00 0.00 41 1014.5
20260504213041 77 129 1.0 6.0 0.00 0.00 0.00 39 1014.6
20260504211540 76 136 3.0 7.0 0.00 0.00 0.00 40 1014.5
20260504210043 76 277 2.0 5.0 0.00 0.00 0.00 38 1014.6
20260504204538 76 184 1.0 9.0 0.00 0.00 0.00 38 1014.6
20260504203050 77 157 2.0 9.0 0.00 0.00 0.00 38 1014.8
20260504201535 77 131 4.0 8.0 0.00 0.00 0.00 38 1014.7
20260504200041 77 140 3.0 9.0 0.00 0.00 0.00 39 1014.9
20260504194537 77 233 3.0 11.0 0.00 0.00 0.00 38 1015.0